Regional Weather Roundup
Issued by NWS Charleston, WV

Home | Current Version | Previous Version | Graphics & Text | Print | Product List | Glossary On
Versions: 1 2 3 4 5 6 7 8 9 10 11 12 13 14 15 16 17 18 19 20 21 22 23 24 25 26 27 28 29 30 31 32 33 34 35 36 37 38 39 40 41 42 43 44 45 46 47 48 49 50
000
ASUS41 KRLX 191010
RWRRLX
West Virginia Regional Weather Roundup
National Weather Service Charleston WV
600 AM EDT THU APR 19 2018

Note: "fair" indicates few or no clouds below 12,000 feet with no
significant weather and/or obstructions to visibility.

WVZ003-191100-
Northern Panhandle of West Virginia

CITY           SKY/WX    TMP DP  RH WIND       PRES   REMARKS
WHEELING       CLOUDY    41  38  89 NW8       29.73R FOG
$$

WVZ009-191100-
Northwest West Virginia

CITY           SKY/WX    TMP DP  RH WIND       PRES   REMARKS
PARKERSBURG    CLOUDY    44  37  76 W16G31    29.84R
$$

WVZ006-191100-
Western West Virginia

CITY           SKY/WX    TMP DP  RH WIND       PRES   REMARKS
HUNTINGTON     CLOUDY    46  32  58 NW12G25   29.88R
$$

WVZ015-191100-
West Central West Virginia

CITY           SKY/WX    TMP DP  RH WIND       PRES   REMARKS
CHARLESTON     CLOUDY    49  39  68 W12G22    29.84R
$$

WVZ022-031-191100-
North Central West Virginia

CITY           SKY/WX    TMP DP  RH WIND       PRES   REMARKS
CLARKSBURG     CLOUDY    48  44  86 W12       29.75R
MORGANTOWN     CLOUDY    44  44 100 S5        29.73R
$$

WVZ025-035-042-045-191100-
Southern West Virginia

CITY           SKY/WX    TMP DP  RH WIND       PRES   REMARKS
BECKLEY        CLOUDY    45  43  93 NW12      29.80R
LOGAN          CLOUDY    46  39  76 W13G21    29.85R
BLUEFIELD      LGT RAIN  46  43  89 NW8       29.81R
LEWISBURG      LGT RAIN  49  42  77 W7        29.77S
$$

WVZ047-191100-
Northern Mountains of West Virginia

CITY           SKY/WX    TMP DP  RH WIND       PRES   REMARKS
ELKINS         LGT RAIN  48  43  82 W14G22    29.75R
$$

WVZ052-191100-
Eastern Panhandle of West Virginia

CITY           SKY/WX    TMP DP  RH WIND       PRES   REMARKS
MARTINSBURG    FAIR      45  43  93 W8        29.66S
PETERSBURG     CLOUDY    47  44  89 CALM      29.70R
$$



USA.gov is the U.S. government's official web portal to all federal, state and local government web resources and services.